STARLINK-4666, 53789

Orbit data source: Space-Track

STARLINK-4666, 53789 is a payload satellite owned by SpaceX/Seattle (US) in LEO that was launched on Sun, 11 Sep 2022 UTC via an FALCON 9 launch vehicle from the Air Force Eastern Test Range (AFETR). Payload-class satellites include a variety of spacecraft equipped with specific instruments for various scientific and technological missions. These include communications satellites like Starlink; space stations such as the ISS; scientific satellites like the Hubble; Earth observation satellites from companies like Planet Labs, Umbra, and HawkEye 360; GPS; miniature CubeSats for education and research; and military/defense satellites.

Loading next visibility...
Identifier
53789, 2022-111S
Orbit
LEO
Country
Flag of USUS
Related business
Manufacturer
SpaceX/Seattle
Mission
Operational Commercial Communications
Bus & Motor
STARLINK, Unknown motor
Mass
305 kg wet, ~290 kg dry
Launch date (UTC)
2022-09-11 (3 years ago)
Launch vehicle
FALCON 9
Launch site
Air Force Eastern Test Range (AFETR)
Object type
Payload
Rocket body
Debris
Shape & HBR
Box + 1 Pan, 10.1 m
Radar Cross Section
13.562 m², Large (>1 m²)

Expand to show TLE details & history
Last TLE update: 1 day ago

TLE from 1 day ago
0 STARLINK-4666
1 53789U 22111S   25340.38099376  .00003835  00000-0  25868-3 0  9999
2 53789  53.2209 332.7230 0000559 126.3405 233.7639 15.08866605179606
Epoch: 2025-12-06T09:08Z
TLE epoch observation values (Epoch: 2025-12-06T09:08:37.860Z)
Latitude
-0.00003°
Longitude
120.15567°
Altitude
540.789 km
Speed
7.593 km/s
True Right ascension
22h 10m 53s
True Declination
0° 00' 00"
Sunlit
Object was in daylight at epoch
Visualization orbit readout
Latitude
Unknown
Longitude
Unknown
Altitude
Unknown
Speed
Unknown
Apparent Right ascension
Unknown
Apparent Declination
Unknown
Sunlit
N/A
Visualization observer readout
Local Sidereal Time
10:18:10
Azimuth
Unknown
Elevation
Unknown
Doppler factor
Unknown
Orbital elements
Apogee altitude
540.293 km
Perigee altitude
539.52 km
Semi-major axis
6,918.043 km
Eccentricity
0.00006
Inclination
53.2209°
RAAN
332.723°
Arg. of periapsis
126.3405°
True anomaly
233.75873°
Mean anomaly
233.7639°
Eccentric anomaly
233.76132°
Mean motion
3.77197 °/min
Orbital period
95.44 mins
BSTAR
0.00025868
Loading maneuver chart data...
Computing Atmospheric mass density...
Loading historical data...
Loading historical data...
Loading historical data...
Loading historical data...
Loading historical data...
Loading historical data...
Loading historical data...

Documentation

Showing up to 5 results
|